Вернуться в каталог

STARLINK-30541

АктивенСвязьVLEO
NORAD 58057·PAYLOAD·🇺🇸 United States

Запущен Oct 13, 2023 с Cape Canaveral Space Force Station

Loading…

Ближайшие Пролёты (ближайшие 24 часа)

TLE

СвежийSource: CelesTrak SupGP

Эпоха: Sep 15, 2026, 02:00 UTC

1 58057C 23158G   26258.08381944 -.00023983  00000+0 -86879-3 0  2589
2 58057  43.0042  37.2377 0001750 272.8703 238.5010 15.27585415    14

Отслеживайте STARLINK-30541 в реальном времени с AllMySat

Download on the App Store